THORAD AGENA D DEB, 4651

Orbit data source: Space-Track

THORAD AGENA D DEB, 4651 is space debris in SSO originally from a launch on Wed, 08 Apr 1970 UTC launched from the Air Force Western Test Range (AFWTR). Debris objects in space refer to the collection of defunct objects orbiting the Earth. Examples of debris include non-operational satellites, rocket bodies, and fragments generated from explosions, collisions, or faulty payload assembly.

Loading next visibility...
Identifier
4651, 1970-025AK
Orbit
SSO
Last TLE update
14 hours ago
Origin
Manufacturer
Unknown
Mission
Spacecraft
Bus & Motor
Unknown
Mass
Unknown
Launch date (UTC)
1970-04-08 (55 years ago)
Launch vehicle
Unknown
Launch site
Air Force Western Test Range (AFWTR)
Object type
Payload
Rocket body
Debris
Shape & HBR
Unknown
Radar Cross Section
Small (<0.1 m²)

Expand to show TLE details & history

TLE from 14 hours ago
0 THORAD AGENA D DEB
1 04651U 70025AK  25128.66755520  .00001544  00000-0  10433-2 0  9991
2 04651 100.1350  32.3349 0043558  84.9945 275.6187 14.01751221779021
Epoch: 2025-05-08T16:01Z
Definitive object data (Epoch: 2025-05-08T16:01:16.769Z)
Latitude
Longitude
-74.71973°
Altitude
887.615 km
Speed
7.41 km/s
True Right ascension
02h 09m 20s
True Declination
0° 00' 00"
Sunlit
Object was in daylight at TLE epoch
Visualization TLE readout
Latitude
-30.34615°
Longitude
-68.11741°
Altitude
911.815 km
Speed
7.388 km/s
Apparent Right ascension
02h 12m 52s
Apparent Declination
-34° 48' 56"
Sunlit
Object is in daylight
Visualization observer readout
Local Sidereal Time
13:43:26
Azimuth
308.814° NW
Elevation
-82.246°
Doppler factor
1
Orbital elements
Apogee altitude
916.63 km
Perigee altitude
853.357 km
Semi-major axis
7,263.13 km
Eccentricity
0.0043558
Inclination
100.135°
RAAN
32.3349°
Arg. of periapsis
84.9945°
True anomaly
275.1217°
Mean anomaly
275.6187°
Eccentric anomaly
275.37023°
Mean motion
3.50637 °/min
BSTAR
0.0010433
Orbital period
102.67 mins
Loading maneuver chart data...
Loading SW <> Apogee altitude chart data...

THORAD AGENA D DEB Visibility forecast

Observer location: undefined°, undefined°

Span
Click to sort rows by Start time (UTC) header in descending order
Start Az.
Max El. time (UTC)
Max El. Az.
Max El.
End time (UTC)
End Az.
11 mins2025-05-09 06:17:45.257Z20.538° NNE2025-05-09 06:22:45.257Z71.546° E42.184°2025-05-09 06:28:45.257Z187.32° SSW
5 mins2025-05-09 08:01:45.257Z327.817° NNW2025-05-09 08:03:45.257Z303.207° NW16.564°2025-05-09 08:06:45.257Z267.346° W
6 mins2025-05-09 16:10:45.257Z95.659° ESE2025-05-09 16:13:45.257Z55.035° ENE19.588°2025-05-09 16:16:45.257Z19.024° NNE
8 mins2025-05-09 17:50:45.257Z187.86° SSW2025-05-09 17:53:45.257Z238.383° WSW38.592°2025-05-09 17:58:45.257Z332.585° NNW
|